Content
SEND FEEDBACK

Daily
Averages
Monthly
Summary
United States of America

SUMMERVILLE, SOUTH CAROLINA


Home > North America > United States > South Carolina
Elevation: 17 meters     Latitude: 32 59N     Longitude: 080 11W

WEATHER
 
SELECT A DAY
Number of Records: 120,477;   Date Range: 4/4/09 - 10/23/14
 
SHARE

PRINT THIS DATA

[ ← Previous Day ]
WEATHER ALMANAC - 31 JANUARY, 2013
[ Next Day → ]
[ °F ]   °C
Weather ElementAverageHighLow
Temperature10.3 °C13 °C (1:55 pm)7 °C (6:15 am)
Dewpoint1.1 °C12 °C (12:35 am)-5 °C (4:35 pm)
Humidity56.8 %100 % (12:35 am)29 % (4:35 pm)
Barometer1014.2 hPa1017.9 hPa (5:15 pm)1007.1 hPa (12:55 am)
Wind Speed19.6 km/h27.8 km/h (1:55 pm)
Wind Gust42.6 km/h (5:15 am)
Weather ElementAverage
Visibility15.8 km
Wind DirectionWSW (257 °)

Weather ElementTotal
Precipitation---
Heating Degree Days8.3 (Base 18.3)
Averaged from 47 records on 31 January, 2013
WEATHER CONDITIONS BREAKOUT
WIND DIRECTION BREAKOUT
WEATHER BY HOUR - 31 JANUARY, 2013
[ °F ]   °C
Local TimeTemperatureDewpointHumidityBarometerVisibilityWind DirectionWind SpeedGust SpeedPrecipitationEventsConditions
12:35 AM12 °C12 °C100 %1007.5 hPa8 kmWest (270°)11.1 km/hRainHeavy Rain
12:55 AM12 °C12 °C100 %1007.1 hPa8 kmWest (270°)11.1 km/hRainRain
1:15 AM12 °C12 °C100 %1007.5 hPa16.1 kmWest (270°)11.1 km/hRainLight Rain
1:35 AM12 °C11 °C94 %1007.8 hPa16.1 kmSSW (210°)7.4 km/hOvercast
2:35 AM12 °C11 °C94 %1008.5 hPa16.1 kmSW (220°)11.1 km/hOvercast
3:15 AM11 °C11 °C100 %1008.5 hPa16.1 kmSW (230°)11.1 km/hOvercast
3:35 AM11 °C10 °C94 %1009.1 hPa16.1 kmWSW (240°)13 km/h27.8 km/hMostly Cloudy
3:55 AM11 °C8 °C82 %1009.5 hPa16.1 kmSW (230°)18.5 km/h37 km/hScattered Clouds
4:15 AM11 °C7 °C76 %1009.8 hPa16.1 kmSW (230°)13 km/h29.6 km/hMostly Cloudy
4:35 AM11 °C7 °C76 %1010.2 hPa16.1 kmWSW (240°)16.7 km/h29.6 km/hMostly Cloudy
4:55 AM11 °C6 °C71 %1010.8 hPa16.1 kmWest (270°)22.2 km/h37 km/hOvercast
5:15 AM10 °C3 °C62 %1011.2 hPa16.1 kmWest (270°)24.1 km/h42.6 km/hScattered Clouds
5:35 AM8 °C1 °C62 %1011.9 hPa16.1 kmWest (260°)22.2 km/h42.6 km/hClear
5:55 AM8 °C1 °C62 %1011.9 hPa16.1 kmWSW (250°)20.4 km/h29.6 km/hClear
6:15 AM7 °C1 °C66 %1012.5 hPa16.1 kmWSW (250°)20.4 km/h27.8 km/hClear
6:35 AM7 °C0 °C61 %1013.2 hPa16.1 kmWest (260°)20.4 km/h35.2 km/hClear
6:55 AM7 °C0 °C61 %1013.5 hPa16.1 kmWest (260°)18.5 km/h35.2 km/hClear
7:15 AM7 °C0 °C61 %1014.2 hPa16.1 kmWest (260°)24.1 km/h42.6 km/hClear
7:35 AM7 °C0 °C61 %1014.2 hPa16.1 kmWSW (250°)14.8 km/h25.9 km/hClear
7:55 AM7 °C1 °C66 %1014.2 hPa16.1 kmWest (270°)20.4 km/hClear
8:15 AM7 °C1 °C66 %1015.2 hPa16.1 kmWSW (250°)24.1 km/h33.3 km/hClear
8:55 AM7 °C-1 °C57 %1016.6 hPa16.1 kmWest (270°)25.9 km/h42.6 km/hClear
9:15 AM7 °C-1 °C57 %1016.6 hPa16.1 kmWest (260°)20.4 km/h42.6 km/hClear
9:35 AM7 °C-1 °C57 %1016.6 hPa16.1 kmWNW (290°)24.1 km/h38.9 km/hClear
9:55 AM8 °C-2 °C50 %1016.6 hPa16.1 kmWest (270°)25.9 km/h37 km/hClear
10:15 AM8 °C-1 °C53 %1016.9 hPa16.1 kmWest (270°)18.5 km/h27.8 km/hClear
10:35 AM8 °C-2 °C50 %1016.9 hPa16.1 kmWest (270°)20.4 km/h37 km/hClear
10:55 AM9 °C-2 °C46 %1017.3 hPa16.1 kmWest (280°)22.2 km/h35.2 km/hClear
11:15 AM10 °C-2 °C43 %1016.9 hPa16.1 kmWest (260°)22.2 km/h31.5 km/hClear
11:35 AM10 °C-2 °C43 %1016.9 hPa16.1 kmWest (280°)24.1 km/h35.2 km/hClear
11:55 AM11 °C-2 °C41 %1016.9 hPa16.1 kmWest (270°)18.5 km/h29.6 km/hClear
12:15 PM11 °C-1 °C44 %1016.6 hPa16.1 kmWSW (240°)25.9 km/h33.3 km/hClear
12:35 PM12 °C-2 °C38 %1016.6 hPa16.1 kmWSW (250°)20.4 km/h33.3 km/hClear
12:55 PM12 °C-2 °C38 %1016.3 hPa16.1 kmWest (270°)22.2 km/h35.2 km/hClear
1:15 PM12 °C-2 °C38 %1016.6 hPa16.1 kmWest (260°)20.4 km/h33.3 km/hClear
1:35 PM12 °C-2 °C38 %1016.3 hPa16.1 kmWest (260°)25.9 km/h35.2 km/hClear
1:55 PM13 °C-3 °C33 %1016.3 hPa16.1 kmWSW (250°)27.8 km/h42.6 km/hClear
2:15 PM13 °C-3 °C33 %1016.3 hPa16.1 kmWSW (250°)22.2 km/h35.2 km/hClear
2:35 PM13 °C-3 °C33 %1016.3 hPa16.1 kmWest (260°)25.9 km/h37 km/hClear
3:15 PM13 °C-4 °C31 %1016.3 hPa16.1 kmWest (260°)20.4 km/h35.2 km/hClear
3:35 PM13 °C-3 °C33 %1016.6 hPa16.1 kmWest (260°)24.1 km/h31.5 km/hClear
3:55 PM13 °C-3 °C33 %1016.6 hPa16.1 kmWSW (250°)18.5 km/h35.2 km/hClear
4:15 PM13 °C-3 °C33 %1017.3 hPa16.1 kmWest (260°)20.4 km/h33.3 km/hClear
4:35 PM13 °C-5 °C29 %1017.3 hPa16.1 kmWest (260°)24.1 km/h37 km/hClear
4:55 PM13 °C-4 °C31 %1017.6 hPa16.1 kmWest (260°)16.7 km/h31.5 km/hClear
5:15 PM12 °C-3 °C35 %1017.9 hPa16.1 kmWSW (250°)18.5 km/h27.8 km/hClear
5:35 PM11 °C-3 °C38 %1017.9 hPa16.1 kmWest (260°)11.1 km/hClear
Hourly data recorded from KDYB, located 0 kilometers away from Summerville, South Carolina







STORIES FROM OUR PARTNERS